This demonstration page uses our WeatherBlox Daily Observations layout. Learn more.

39.92423, -83.80882

Hourly Observations for May 11, 2015

Temp ( °F °C ) Dew Point ( °F °C ) Humidity (%) Winds ( mph kmh ) Pressure ( in mb ) Visibility ( mi km ) Precip ( " mm )
12:56 am 00:56 Mostly Cloudy 71 21.6 63 17.2 76 76 NW 8 13 30.06 1018 7 11.26538 0 0
1:56 am 01:56 Mostly Cloudy 70 21.1 64 17.7 81 81 WNW 9 15 30.07 1018 7 11.26538 0 0
2:14 am 02:14 Mostly Cloudy with Light Rain 70 21 64 18 83 83 WNW 7 11 30.06 1018 2.5 4.02335 0.03 0.762
2:24 am 02:24 Cloudy with Light Rain 68 20 64 18 88 88 W 6 9 30.06 1018 5 8.0467 0.04 1.016
2:56 am 02:56 Mostly Clear with Mist and Fog 68 20 65 18.3 90 90 WNW 6 9 30.05 1018 6 9.65604 0.04 1.016
3:56 am 03:56 Mostly Clear with Mist and Fog 65 18.3 64 17.7 96 96 SE 5 7 30.01 1016 5 8.0467 0 0
4:56 am 04:56 Clear with Mist and Fog 65 18.3 65 18.3 100 100 SSE 6 9 29.99 1016 6 9.65604 0 0
5:48 am 05:48 Clear with Mist and Fog 63 17 63 17 100 100 SE 3 6 30.03 1017 1.5 2.41401 0 0
5:56 am 05:56 Clear with Fog 61 16.1 61 16.1 100 100 Calm 30 1016 0.5 0.80467 0 0
6:03 am 06:03 Clear with Mist and Fog 61 16 61 16 100 100 SE 3 6 30.03 1017 1 1.60934 0 0
6:07 am 06:07 Clear with Fog 61 16 61 16 100 100 Calm 30.03 1017 0.5 0.80467 0 0
6:17 am 06:17 Clear with Fog 61 16 61 16 100 100 SE 5 7 30.03 1017 0.25 0.402335 0 0
6:40 am 06:40 Sunny with Mist and Fog 63 17 63 17 100 100 SSE 5 7 30.03 1017 1 1.60934 0 0
6:47 am 06:47 Sunny with Mist and Fog 63 17 63 17 100 100 SSE 6 9 30.03 1017 2.5 4.02335 0 0
6:56 am 06:56 Sunny with Mist and Fog 63 17.2 63 17.2 100 100 SSE 8 13 30.01 1016 3 4.82802 0 0
7:56 am 07:56 Sunny with Mist and Fog 67 19.4 66 18.8 96 96 SE 6 9 30.02 1017 5 8.0467 0 0
8:56 am 08:56 Hazy 71 21.6 66 18.8 84 84 S 7 11 30.02 1017 5 8.0467 0 0
9:56 am 09:56 Hazy 76 24.4 65 18.3 69 69 SSE 9 15 30.02 1017 5 8.0467 0 0
10:56 am 10:56 Hazy 79 26.1 65 18.3 62 62 S 9 15 30.01 1016 6 9.65604 0 0
11:56 am 11:56 Hazy 83 28.3 63 17.2 51 51 SSW 13 20 30 1016 6 9.65604 0 0
12:56 pm 12:56 Hazy 87 30.5 64 17.7 46 46 S 16 26 29.97 1015 5 8.0467 0 0
1:56 pm 13:56 Hazy 87 30.5 64 17.7 46 46 SSW 12 19 29.93 1014 5 8.0467 0 0
2:56 pm 14:56 Hazy 88 31.1 64 17.7 45 45 S 18 30 29.9 1013 5 8.0467 0 0
3:56 pm 15:56 Partly Cloudy with Light Rain 82 27.7 65 18.3 57 57 WSW 17 28 29.9 1012 4 6.43736 0 0.0254
4:56 pm 16:56 Hazy 80 26.6 65 18.3 60 60 SSW 12 19 29.89 1012 6 9.65604 0 0.0254
5:56 pm 17:56 Hazy 81 27.2 67 19.4 62 62 WSW 14 22 29.87 1012 5 8.0467 0 0
6:08 pm 18:08 Mostly Cloudy with Nearby Thunderstorms 79 26 66 19 65 65 W 12 19 29.83 1010 5 8.0467 0 0
6:13 pm 18:13 Mostly Cloudy 79 26 68 20 70 70 W 20 31 29.85 1011 2.5 4.02335 0.03 0.762
6:15 pm 18:15 Mostly Cloudy 75 24 68 20 78 78 W 21 33 29.88 1012 1.25 2.011675 0.1 2.54
6:17 pm 18:17 Mostly Cloudy 75 24 68 20 78 78 WSW 15 24 29.88 1012 0.75 1.207005 0.14 3.556
6:21 pm 18:21 Cloudy with Heavy Thunderstorms 72 22 68 20 88 88 WSW 9 15 29.88 1012 0.5 0.80467 0.23 5.842
6:28 pm 18:28 Cloudy with Heavy Thunderstorms 72 22 68 20 88 88 SW 10 17 29.88 1012 0.5 0.80467 0.38 9.652
6:38 pm 18:38 Cloudy with Heavy Thunderstorms 70 21 68 20 94 94 S 9 15 29.88 1012 0.75 1.207005 0.5 12.7
6:42 pm 18:42 Cloudy with Light Thunderstorms 70 21 68 20 94 94 SSE 9 15 29.88 1012 1.25 2.011675 0.5 12.7
6:45 pm 18:45 Cloudy with Light Thunderstorms 70 21 68 20 94 94 SSE 7 11 29.88 1012 1.5 2.41401 0.5 12.7
6:48 pm 18:48 Mostly Cloudy with Light Thunderstorms 70 21 70 21 100 100 S 5 7 29.88 1012 3 4.82802 0.5 12.7
6:56 pm 18:56 Mostly Cloudy with Light Thunderstorms 69 20.5 69 20.5 100 100 SSE 6 9 29.89 1012 4 6.43736 0.5 12.7
7:25 pm 19:25 Mostly Cloudy with Mist and Fog 70 21 70 21 100 100 S 5 7 29.88 1012 3 4.82802 0 0.0254
7:56 pm 19:56 Cloudy with Mist and Fog 70 21.1 68 20 93 93 WSW 5 7 29.9 1013 5 8.0467 0 0.0254
8:56 pm 20:56 Cloudy with Light Rain 69 20.5 66 18.8 90 90 SSW 7 11 29.93 1013 5 8.0467 0.01 0.254
9:56 pm 21:56 Mostly Cloudy with Mist and Fog 67 19.4 66 18.8 96 96 SSW 9 15 29.93 1014 6 9.65604 0 0.0254
10:56 pm 22:56 Mostly Clear with Mist and Fog 66 18.8 65 18.3 97 97 SW 7 11 29.95 1014 6 9.65604 0 0
11:56 pm 23:56 Clear 64 17.7 62 16.6 93 93 SW 7 11 29.96 1015 7 11.26538 0 0

Powered by AerisWeather